Other Public Products
Issued by NWS Grand Forks, ND

Home | Current Version | Previous Version | Text Only | Print | Product List | Glossary Off
Versions: 1 2 3 4 5 6 7 8 9 10 11 12 13 14 15 16 17 18 19 20 21 22 23 24 25 26 27 28 29 30 31 32 33 34 35 36 37 38 39 40 41 42 43 44 45 46 47 48 49 50

000
FPUS83 KFGF 271331
OPUFGF
PRAIRIE TO PINES WEATHER ROUNDUP
NATIONAL WEATHER SERVICE EASTERN NORTH DAKOTA/GRAND FORKS ND
800 AM CDT WED MAY 27 2015

 **SATELLITE DATA USED TO AUGMENT SKY COVER AT AUTOMATED STATIONS**
 *****  WEATHER ACROSS EASTERN NORTH DAKOTA  *****

CITY           SKY/WX    TMP DP  RH WIND       PRES   REMARKS
GRAND FORKS    PTSUNNY   56  45  66 N14       29.92R
GRAND FORKS AF MOSUNNY   56  45  66 N14       29.93R
GRAND CITY NWS   N/A     55 N/A N/A N12         N/A
BUXTON           N/A     60  55  81 NW8         N/A
DEVILS LAKE    SUNNY     57  48  72 NE9       29.95R
FARGO          SUNNY     61  51  70 NW7       29.90R
WAHPETON ARPT  SUNNY     61  50  67 W7        29.92R
$$

 *****  WEATHER ACROSS CENTRAL AND WESTERN NORTH DAKOTA  *****

CITY           SKY/WX    TMP DP  RH WIND       PRES   REMARKS
JAMESTOWN      SUNNY     62  51  67 N6        29.95R
BISMARCK       SUNNY     59  50  72 W3        29.96S
MINOT          MOSUNNY   59  48  67 E5        29.95R
MINOT AFB      MOSUNNY   62  56  83 CALM      29.94R
GARRISON         N/A     60  52  74 CALM      29.94S
WILLISTON      SUNNY     59  47  64 CALM      29.93S
DICKINSON      MOSUNNY   57  47  69 SE5       29.95R
HETTINGER      MOSUNNY   56  47  71 CALM      29.98S
$$

 *****  OTHER OBSERVATIONS NORTHEAST NORTH DAKOTA  *****

CITY           SKY/WX    TMP DP  RH WIND       PRES   REMARKS
WALHALLA         N/A     54  46  76 MISG      29.97S
LANGDON        FAIR      54  45  71 N15       29.97R
CAVALIER       FAIR      54  45  71 N17       29.96R
GRAFTON        FAIR      55  46  71 N15       29.95R
CANDO          FAIR      54  45  71 NE10      29.97R
FORT TOTTEN      N/A     58  52  79 NE5       29.95S
ROLLA          FAIR      50  41  71 N13       30.00R
RUGBY          NOT AVBL
 ***** THE ABOVE OBSERVATIONS ARE NON NWS ARE NOT QUALITY
        CONTROLLED AND MAY MIS-REPORT RAIN FOR SNOW...
$$

 *****  OTHER OBSERVATIONS SOUTHEAST NORTH DAKOTA *****

CITY           SKY/WX    TMP DP  RH WIND       PRES   REMARKS
COOPERSTOWN    NOT AVBL
VALLEY CITY    FAIR      63  50  63 NW8       29.94S
OAKES            N/A     63  54  72 N6        29.95R
GWINNER        NOT AVBL
BUFFALO        NOT AVBL
WYNDMERE         N/A     61  54  77 W7          N/A
 ***** THE ABOVE OBSERVATIONS ARE NON NWS ARE NOT QUALITY
       CONTROLLED AND MAY MIS-REPORT RAIN FOR SNOW...
$$

  *****  WEATHER ACROSS NORTHERN MINNESOTA  *****

CITY           SKY/WX    TMP DP  RH WIND       PRES   REMARKS
FLAG ISLAND    MOSUNNY   54  46  76 NW12      29.87R
WARROAD        MOSUNNY   54  46  76 NW9       29.90R
ROSEAU         LGT RAIN  55  46  71 NW7       29.90R
HALLOCK        MOSUNNY   54  45  71 N15G22    29.93R
THF RVR FALLS  MOSUNNY   57  46  67 NW9       29.91R
HALSTAD          N/A     60  52  73 N12         N/A
FOSSTON        SUNNY     61  52  72 NW3       29.90R
BAUDETTE       MOSUNNY   58  49  72 NW12      29.85R
WASKISH        SUNNY     61  52  72 CALM      29.86R
CROOKSTON      MOSUNNY   57  48  72 N12       29.92R
$$
  *****  WEATHER ACROSS CENTRAL AND WEST MINNESOTA  *****

CITY           SKY/WX    TMP DP  RH WIND       PRES   REMARKS
BEMIDJI        MOSUNNY   60  53  77 NW5       29.87R
PARK RAPIDS    MOSUNNY   61  54  77 NW5       29.87R
WADENA         SUNNY     57  55  94 W6        29.89R
DETROIT LAKES  SUNNY     61  52  72 N7        29.91R
MOORHEAD       SUNNY     61  52  72 NW9       29.92R
FERGUS FALLS   SUNNY     59  54  82 NW6       29.92R
ELBOW LAKE     FAIR      59  53  82 NW7       29.92R
MORRIS MN      SUNNY     63  54  72 NW13      29.91R
STAPLES        SUNNY     61  54  77 W5        29.89R
WHEATON        SUNNY     63  52  67 W9        29.94R
$$
  *****  WEATHER ELSEWHERE ACROSS MINNESOTA  *****

CITY           SKY/WX    TMP DP  RH WIND       PRES   REMARKS
DULUTH         PTSUNNY   64  53  67 NW8       29.83R
INTRNTL FALLS  SUNNY     59  52  77 NW7       29.83R
ELY            NOT AVBL
CLOQUET        PTSUNNY   64  54  68 W8        29.85R
BRAINERD       SUNNY     58  55  90 SW6       29.87R
HIBBING        MOSUNNY   56  52  86 CALM      29.83R
ALEXANDRIA     SUNNY     60  53  77 W7        29.91R
SAINT CLOUD    MOSUNNY   58  56  93 S6        29.89R
MINNEAPOLIS    PTSUNNY   59  57  93 SW5       29.92R
$$

  *****  WEATHER ACROSS SOUTH DAKOTA  *****

CITY           SKY/WX    TMP DP  RH WIND       PRES   REMARKS
SIOUX FALLS    SUNNY     61  53  75 CALM      29.99R
BROOKINGS      SUNNY     61  52  72 NW6       29.98S
WATERTOWN      SUNNY     62  51  67 NW6       29.97R
HURON          SUNNY     59  53  80 CALM      29.98R
SISSETON         N/A     66  51  58 NW8       29.92R
ABERDEEN       SUNNY     62  53  72 W5        29.96R
MITCHELL       SUNNY     60  52  74 W5        29.99R
PIERRE         PTSUNNY   57  50  77 SW6       29.99R
MOBRIDGE       SUNNY     59  55  87 SE5       29.95S
RAPID CITY     CLOUDY    55  52  89 SE5       29.99S
$$

  *****  SOME WEATHER IN NEARBY STATES *****

CITY           SKY/WX    TMP DP  RH WIND       PRES   REMARKS
GLASGOW MT     PTSUNNY   58  53  84 S6        29.94R
GREAT FALLS MT CLOUDY    50  48  93 SW9       30.02S
CHEYENNE WY    PTSUNNY   50  42  74 W10       30.09S
SCOTTSBLUFF NE MOSUNNY   53  51  93 SE9       30.03S
OMAHA NE       SUNNY     60  56  86 S5        30.04R
DES MOINES IA  MOSUNNY   62  55  77 W6        30.00S
DAVENPORT IA   CLOUDY    62  59  90 SW12      29.99R
CHICAGO IL     MOSUNNY   66  59  78 SW10G26   29.94R
EAU CLAIRE WI  PTSUNNY   58  56  93 W8        29.92R
LA CROSSE WI   PTSUNNY   62  57  83 NW6       29.94R
$$

  *****  SOME NATIONAL WEATHER *****

CITY           SKY/WX    TMP DP  RH WIND       PRES   REMARKS
LA GUARDIA NY  CLOUDY    72  62  71 S8        30.17S
RALEIGH NC     CLOUDY    73  70  88 SW10      30.27R
ATLANTA GA     PTSUNNY   72  66  83 SW5       30.25S
NEW ORLEANS LA PTSUNNY   79  74  84 SE6       30.12R
OKLAHOMA CITY  MOSUNNY   65  63  93 S7        30.06R
ALBUQUERQUE NM PTSUNNY   58  44  60 N9        30.15S
SALT LAKE CITY MOCLDY    53  47  79 SE8       30.06R
LOS ANGELES CA CLOUDY    59  54  83 E3        29.98S
BOISE ID       MOCLDY    55  50  83 SE7       29.99F
SEATTLE WA     MOCLDY    55  53  93 CALM      30.06S
$$

*** WEATHER ACROSS MANITOBA...SASKATCHEWAN AND ONTARIO ***
                ***ONTARIO***

CITY           SKY/WX    TMP DP  RH WIND       PRES   REMARKS
GERALDTON      CLOUDY    55  52  88 CALM      29.71
THUNDER BAY    PTSUNNY   63  55  77 SW7       29.72S
SIOUX LOOKOUT  SUNNY     54  45  71 N7        29.83R
TORONTO        PTSUNNY   73  63  68 SW16G23   29.97S
BIG TROUT LK   CLOUDY    30  28  93 NE7       30.01R WCI  23
PICKLE LAKE    CLOUDY    41  36  81 N10G18    29.88R
DRYDEN         SUNNY     57  48  72 NE8       29.84R
KENORA         PTSUNNY   55  48  76 N7        29.88
$$
                *** MANITOBA***

CITY           SKY/WX    TMP DP  RH WIND       PRES   REMARKS
BRANDON        PTSUNNY   46  41  81 NE12      30.03R
DAUPHIN        MOSUNNY   46  37  71 NE16      30.08R
ISLAND LAKE    MOSUNNY   37  28  70 N8        30.08
PILOT MOUND      N/A     48  43  81 N13         N/A
THE PAS        MOSUNNY   45  37  76 SE8       30.12R
THOMPSON       SUNNY     41  28  60 W2        30.11R
WINNIPEG       MOSUNNY   50  41  71 N16       29.98R
LYNN LAKE      SUNNY     41  28  60 NE6       30.11R
CHURCHILL      CLOUDY    30  25  80 N16G26    30.09R WCI  19
GILLAM         PTSUNNY   36  28  75 W12       30.09R
$$
                ***SASKATCHEWAN***

CITY           SKY/WX    TMP DP  RH WIND       PRES   REMARKS
ESTEVAN        MOSUNNY   54  50  87 E15       29.95R
KINDERSLEY     PTSUNNY   52  46  82 E14G21    29.99R
LLOYDMINSTER   MOSUNNY   48  39  71 SE13      30.02S
PRINCE ALBERT  MOSUNNY   45  41  87 E6        30.09R
REGINA         PTSUNNY   54  46  76 E12       29.99R
YORKTON        CLOUDY    46  41  81 NE7       30.05R


USA.gov is the U.S. government's official web portal to all federal, state and local government web resources and services.